Time,TemperatureF,DewpointF,PressureIn,WindDirection,WindDirectionDegrees,WindSpeedMPH,WindSpeedGustMPH,Humidity,HourlyPrecipIn,Conditions,Clouds,dailyrainin,SoftwareType,DateUTC
2013-07-09 00:10:00,53.5,47.1,30.10,NNW,344,0.0,0.0,79,0.00,,,0.00,Wunderground v.1.15,2013-07-09 04:10:00,
2013-07-09 00:20:00,52.7,47.0,30.10,NNW,344,0.0,0.0,81,0.00,,,0.00,Wunderground v.1.15,2013-07-09 04:20:00,
2013-07-09 00:30:00,52.0,47.0,30.10,NNW,344,0.0,0.0,83,0.00,,,0.00,Wunderground v.1.15,2013-07-09 04:30:00,
2013-07-09 00:40:00,51.9,46.9,30.10,NNW,344,0.0,0.0,83,0.00,,,0.00,Wunderground v.1.15,2013-07-09 04:40:00,
2013-07-09 00:50:00,51.5,46.5,30.10,NNW,344,0.0,0.0,83,0.00,,,0.00,Wunderground v.1.15,2013-07-09 04:50:00,
2013-07-09 01:00:00,51.4,46.7,30.11,NNW,344,0.0,0.0,84,0.00,,,0.00,Wunderground v.1.15,2013-07-09 05:00:00,
2013-07-09 01:10:00,51.0,46.3,30.11,NNW,344,0.0,0.0,84,0.00,,,0.00,Wunderground v.1.15,2013-07-09 05:10:00,
2013-07-09 01:20:00,50.4,46.1,30.11,NNW,344,0.0,0.0,85,0.00,,,0.00,Wunderground v.1.15,2013-07-09 05:20:00,
2013-07-09 01:30:00,50.3,46.3,30.11,NNW,344,0.0,0.0,86,0.00,,,0.00,Wunderground v.1.15,2013-07-09 05:30:00,
2013-07-09 01:40:00,50.0,46.0,30.11,NNW,344,0.0,0.0,86,0.00,,,0.00,Wunderground v.1.15,2013-07-09 05:40:00,
2013-07-09 01:50:00,49.4,45.7,30.12,NNW,344,0.0,0.0,87,0.00,,,0.00,Wunderground v.1.15,2013-07-09 05:50:00,
2013-07-09 02:00:00,48.8,45.7,30.12,NNW,344,0.0,0.0,89,0.00,,,0.00,Wunderground v.1.15,2013-07-09 06:00:00,
2013-07-09 02:10:00,48.3,45.5,30.11,NNW,344,0.0,0.0,90,0.00,,,0.00,Wunderground v.1.15,2013-07-09 06:10:00,
2013-07-09 02:20:00,48.1,45.3,30.12,NNW,344,0.0,0.0,90,0.00,,,0.00,Wunderground v.1.15,2013-07-09 06:20:00,
2013-07-09 02:30:00,47.9,45.1,30.12,NNW,344,0.0,0.0,90,0.00,,,0.00,Wunderground v.1.15,2013-07-09 06:30:00,
2013-07-09 02:40:00,47.7,45.2,30.13,NNW,344,0.0,0.0,91,0.00,,,0.00,Wunderground v.1.15,2013-07-09 06:40:00,
2013-07-09 02:50:00,47.3,44.8,30.13,NNW,344,0.0,0.0,91,0.00,,,0.00,Wunderground v.1.15,2013-07-09 06:50:00,
2013-07-09 03:00:00,47.0,44.8,30.13,NNW,344,0.0,0.0,92,0.00,,,0.00,Wunderground v.1.15,2013-07-09 07:00:00,
2013-07-09 03:10:00,46.7,44.5,30.13,NNW,344,0.0,0.0,92,0.00,,,0.00,Wunderground v.1.15,2013-07-09 07:10:00,
2013-07-09 03:20:00,46.4,44.2,30.13,NNW,344,0.0,0.0,92,0.00,,,0.00,Wunderground v.1.15,2013-07-09 07:20:00,
2013-07-09 03:30:00,46.3,44.4,30.12,NNW,344,0.0,0.0,93,0.00,,,0.00,Wunderground v.1.15,2013-07-09 07:30:00,
2013-07-09 03:40:00,46.4,44.8,30.13,NNW,344,0.0,0.0,94,0.00,,,0.00,Wunderground v.1.15,2013-07-09 07:40:00,
2013-07-09 04:00:00,46.8,44.9,30.13,NNW,344,0.0,0.0,93,0.00,,,0.00,Wunderground v.1.15,2013-07-09 08:00:00,
2013-07-09 04:10:00,46.8,44.9,30.12,NNW,344,0.0,0.0,93,0.00,,,0.00,Wunderground v.1.15,2013-07-09 08:10:00,
2013-07-09 04:20:00,46.9,44.7,30.12,NNW,344,0.0,0.0,92,0.00,,,0.00,Wunderground v.1.15,2013-07-09 08:20:00,
2013-07-09 04:30:00,46.7,44.5,30.12,NNW,344,0.0,0.0,92,0.00,,,0.00,Wunderground v.1.15,2013-07-09 08:30:00,
2013-07-09 04:40:00,46.6,44.4,30.13,NNW,345,0.0,0.0,92,0.00,,,0.00,Wunderground v.1.15,2013-07-09 08:40:00,
2013-07-09 04:50:00,46.7,44.5,30.13,NNW,344,0.0,0.0,92,0.00,,,0.00,Wunderground v.1.15,2013-07-09 08:50:00,
2013-07-09 05:00:00,46.9,45.0,30.13,NNW,344,0.0,0.0,93,0.00,,,0.00,Wunderground v.1.15,2013-07-09 09:00:00,
2013-07-09 05:10:00,47.4,45.2,30.12,NNW,344,0.0,0.0,92,0.00,,,0.00,Wunderground v.1.15,2013-07-09 09:10:00,
2013-07-09 05:20:00,48.3,45.8,30.13,NNW,344,0.0,0.0,91,0.00,,,0.00,Wunderground v.1.15,2013-07-09 09:20:00,
2013-07-09 05:30:00,49.1,46.3,30.13,NNW,344,0.0,0.0,90,0.00,,,0.00,Wunderground v.1.15,2013-07-09 09:30:00,
2013-07-09 05:40:00,49.6,46.5,30.13,NNW,344,0.0,0.0,89,0.00,,,0.00,Wunderground v.1.15,2013-07-09 09:40:00,
2013-07-09 05:50:00,49.7,46.3,30.14,NNW,344,0.0,0.0,88,0.00,,,0.00,Wunderground v.1.15,2013-07-09 09:50:00,
2013-07-09 06:00:00,49.7,46.0,30.14,NNW,345,0.0,0.0,87,0.00,,,0.00,Wunderground v.1.15,2013-07-09 10:00:00,
2013-07-09 06:10:00,50.0,46.0,30.14,NNW,344,0.0,0.0,86,0.00,,,0.00,Wunderground v.1.15,2013-07-09 10:10:00,
2013-07-09 06:20:00,49.9,45.9,30.14,NNW,344,0.0,0.0,86,0.00,,,0.00,Wunderground v.1.15,2013-07-09 10:20:00,
2013-07-09 06:30:00,49.9,46.2,30.15,NNW,344,0.0,0.0,87,0.00,,,0.00,Wunderground v.1.15,2013-07-09 10:30:00,
2013-07-09 06:40:00,49.8,46.7,30.15,NNW,344,0.0,0.0,89,0.00,,,0.00,Wunderground v.1.15,2013-07-09 10:40:00,
2013-07-09 06:50:00,49.8,46.7,30.15,NNW,344,0.0,0.0,89,0.00,,,0.00,Wunderground v.1.15,2013-07-09 10:50:00,
2013-07-09 07:00:00,50.2,47.1,30.15,NNW,344,0.0,0.0,89,0.00,,,0.00,Wunderground v.1.15,2013-07-09 11:00:00,
2013-07-09 07:10:00,51.0,48.2,30.15,NNW,344,0.0,0.0,90,0.00,,,0.00,Wunderground v.1.15,2013-07-09 11:10:00,
2013-07-09 07:20:00,52.0,48.3,30.15,NNW,344,0.0,0.0,87,0.00,,,0.00,Wunderground v.1.15,2013-07-09 11:20:00,
2013-07-09 07:30:00,53.5,48.1,30.16,NNW,344,0.0,0.0,82,0.00,,,0.00,Wunderground v.1.15,2013-07-09 11:30:00,
2013-07-09 07:40:00,54.6,49.5,30.16,NNW,344,0.0,0.0,83,0.00,,,0.00,Wunderground v.1.15,2013-07-09 11:40:00,
2013-07-09 07:50:00,55.6,47.1,30.16,NNW,344,0.0,0.0,73,0.00,,,0.00,Wunderground v.1.15,2013-07-09 11:50:00,
2013-07-09 08:00:00,56.6,48.8,30.16,NNW,344,0.0,0.0,75,0.00,,,0.00,Wunderground v.1.15,2013-07-09 12:00:00,
2013-07-09 08:10:00,57.1,48.5,30.16,NNW,344,0.0,0.0,73,0.00,,,0.00,Wunderground v.1.15,2013-07-09 12:10:00,
2013-07-09 08:20:00,57.7,48.4,30.16,NNW,345,0.0,0.0,71,0.00,,,0.00,Wunderground v.1.15,2013-07-09 12:20:00,
2013-07-09 08:30:00,58.0,48.6,30.15,ENE,59,0.0,0.0,71,0.00,,,0.00,Wunderground v.1.15,2013-07-09 12:30:00,
2013-07-09 08:40:00,58.1,48.7,30.15,ENE,58,0.0,0.0,71,0.00,,,0.00,Wunderground v.1.15,2013-07-09 12:40:00,
2013-07-09 08:50:00,58.5,50.2,30.15,East,90,0.0,0.0,74,0.00,,,0.00,Wunderground v.1.15,2013-07-09 12:50:00,
2013-07-09 09:00:00,59.0,49.6,30.15,East,88,0.0,0.0,71,0.00,,,0.00,Wunderground v.1.15,2013-07-09 13:00:00,
2013-07-09 09:10:00,59.9,50.8,30.14,East,88,1.0,1.0,72,0.00,,,0.00,Wunderground v.1.15,2013-07-09 13:10:00,
2013-07-09 09:20:00,60.3,50.5,30.14,ENE,68,1.0,1.0,70,0.00,,,0.00,Wunderground v.1.15,2013-07-09 13:20:00,
2013-07-09 09:30:00,60.8,51.7,30.14,ENE,63,1.0,1.0,72,0.00,,,0.00,Wunderground v.1.15,2013-07-09 13:30:00,
2013-07-09 09:40:00,61.1,50.5,30.15,ENE,61,1.0,1.0,68,0.00,,,0.00,Wunderground v.1.15,2013-07-09 13:40:00,
2013-07-09 09:50:00,62.0,52.1,30.15,ENE,65,0.0,1.0,70,0.00,,,0.00,Wunderground v.1.15,2013-07-09 13:50:00,
2013-07-09 10:00:00,62.7,51.6,30.15,ENE,66,0.0,0.0,67,0.00,,,0.00,Wunderground v.1.15,2013-07-09 14:00:00,
2013-07-09 10:10:00,63.5,52.7,30.15,ENE,70,0.0,0.0,68,0.00,,,0.00,Wunderground v.1.15,2013-07-09 14:10:00,
2013-07-09 10:20:00,64.1,54.1,30.14,ENE,69,0.0,0.0,70,0.00,,,0.00,Wunderground v.1.15,2013-07-09 14:20:00,
2013-07-09 10:30:00,64.4,53.2,30.14,SSW,211,0.0,0.0,67,0.00,,,0.00,Wunderground v.1.15,2013-07-09 14:30:00,
2013-07-09 10:40:00,64.5,54.1,30.14,SSW,209,0.0,0.0,69,0.00,,,0.00,Wunderground v.1.15,2013-07-09 14:40:00,
2013-07-09 10:50:00,65.6,55.2,30.14,SSW,209,0.0,0.0,69,0.00,,,0.00,Wunderground v.1.15,2013-07-09 14:50:00,
2013-07-09 11:00:00,66.0,55.1,30.14,SW,224,1.0,1.0,68,0.00,,,0.00,Wunderground v.1.15,2013-07-09 15:00:00,
2013-07-09 11:10:00,66.1,54.4,30.14,SW,234,2.0,2.0,66,0.00,,,0.00,Wunderground v.1.15,2013-07-09 15:10:00,
2013-07-09 11:20:00,66.5,55.2,30.14,SW,222,0.0,0.0,67,0.00,,,0.00,Wunderground v.1.15,2013-07-09 15:20:00,
2013-07-09 11:30:00,67.9,54.8,30.14,East,96,1.0,1.0,63,0.00,,,0.00,Wunderground v.1.15,2013-07-09 15:30:00,
2013-07-09 11:40:00,68.5,53.6,30.13,ENE,78,1.0,1.0,59,0.00,,,0.00,Wunderground v.1.15,2013-07-09 15:40:00,
2013-07-09 11:50:00,68.8,53.4,30.13,East,89,0.0,0.0,58,0.00,,,0.00,Wunderground v.1.15,2013-07-09 15:50:00,
2013-07-09 12:00:00,69.6,56.4,30.12,East,88,0.0,0.0,63,0.00,,,0.00,Wunderground v.1.15,2013-07-09 16:00:00,
2013-07-09 12:10:00,69.8,53.9,30.12,SW,229,1.0,1.0,57,0.00,,,0.00,Wunderground v.1.15,2013-07-09 16:10:00,
2013-07-09 12:20:00,70.2,53.8,30.11,WSW,248,0.0,0.0,56,0.00,,,0.00,Wunderground v.1.15,2013-07-09 16:20:00,
2013-07-09 12:30:00,70.5,55.0,30.11,WSW,248,0.0,0.0,58,0.00,,,0.00,Wunderground v.1.15,2013-07-09 16:30:00,
2013-07-09 12:40:00,70.9,55.9,30.11,WSW,245,1.0,1.0,59,0.00,,,0.00,Wunderground v.1.15,2013-07-09 16:40:00,
2013-07-09 12:50:00,71.0,55.5,30.11,WSW,245,1.0,3.0,58,0.00,,,0.00,Wunderground v.1.15,2013-07-09 16:50:00,
2013-07-09 13:00:00,71.3,57.2,30.11,SW,229,1.0,1.0,61,0.00,,,0.00,Wunderground v.1.15,2013-07-09 17:00:00,
2013-07-09 13:10:00,71.9,55.8,30.11,SSW,205,0.0,0.0,57,0.00,,,0.00,Wunderground v.1.15,2013-07-09 17:10:00,
2013-07-09 13:20:00,72.2,55.1,30.10,ESE,117,0.0,0.0,55,0.00,,,0.00,Wunderground v.1.15,2013-07-09 17:20:00,
2013-07-09 13:30:00,72.4,55.8,30.10,ENE,78,0.0,0.0,56,0.00,,,0.00,Wunderground v.1.15,2013-07-09 17:30:00,
2013-07-09 13:40:00,72.9,56.8,30.10,ESE,103,0.0,0.0,57,0.00,,,0.00,Wunderground v.1.15,2013-07-09 17:40:00,
2013-07-09 13:50:00,73.2,56.1,30.10,ESE,103,0.0,0.0,55,0.00,,,0.00,Wunderground v.1.15,2013-07-09 17:50:00,
2013-07-09 14:00:00,73.1,54.9,30.10,ESE,103,0.0,0.0,53,0.00,,,0.00,Wunderground v.1.15,2013-07-09 18:00:00,
2013-07-09 14:10:00,73.0,57.3,30.09,ESE,103,0.0,0.0,58,0.00,,,0.00,Wunderground v.1.15,2013-07-09 18:10:00,
2013-07-09 14:20:00,72.5,55.4,30.09,East,86,1.0,2.0,55,0.00,,,0.00,Wunderground v.1.15,2013-07-09 18:20:00,
2013-07-09 14:30:00,72.2,56.1,30.09,East,86,0.0,0.0,57,0.00,,,0.00,Wunderground v.1.15,2013-07-09 18:30:00,
2013-07-09 14:40:00,72.1,57.4,30.09,East,86,0.0,0.0,60,0.00,,,0.00,Wunderground v.1.15,2013-07-09 18:40:00,
2013-07-09 14:50:00,71.7,57.1,30.09,East,86,0.0,0.0,60,0.00,,,0.00,Wunderground v.1.15,2013-07-09 18:50:00,
2013-07-09 15:00:00,71.3,58.5,30.09,East,86,0.0,0.0,64,0.00,,,0.00,Wunderground v.1.15,2013-07-09 19:00:00,
2013-07-09 15:10:00,71.1,58.3,30.09,East,86,0.0,0.0,64,0.00,,,0.00,Wunderground v.1.15,2013-07-09 19:10:00,
2013-07-09 15:20:00,71.0,59.9,30.09,East,86,0.0,0.0,68,0.00,,,0.00,Wunderground v.1.15,2013-07-09 19:20:00,
2013-07-09 15:30:00,71.0,58.6,30.08,East,86,0.0,2.0,65,0.00,,,0.00,Wunderground v.1.15,2013-07-09 19:30:00,
2013-07-09 15:40:00,71.1,57.4,30.08,East,86,0.0,0.0,62,0.00,,,0.00,Wunderground v.1.15,2013-07-09 19:40:00,
2013-07-09 15:50:00,71.5,57.8,30.08,ENE,74,0.0,1.0,62,0.00,,,0.00,Wunderground v.1.15,2013-07-09 19:50:00,
2013-07-09 16:00:00,71.9,59.1,30.07,ENE,74,1.0,1.0,64,0.00,,,0.00,Wunderground v.1.15,2013-07-09 20:00:00,
2013-07-09 16:10:00,72.2,59.3,30.06,ENE,74,1.0,1.0,64,0.00,,,0.00,Wunderground v.1.15,2013-07-09 20:10:00,
2013-07-09 16:20:00,72.6,58.8,30.05,ENE,74,0.0,1.0,62,0.00,,,0.00,Wunderground v.1.15,2013-07-09 20:20:00,
2013-07-09 16:30:00,73.3,58.6,30.06,ENE,59,0.0,0.0,60,0.00,,,0.00,Wunderground v.1.15,2013-07-09 20:30:00,
2013-07-09 16:40:00,74.1,59.3,30.06,ENE,67,0.0,2.0,60,0.00,,,0.00,Wunderground v.1.15,2013-07-09 20:40:00,
2013-07-09 16:50:00,74.7,58.9,30.06,East,93,1.0,1.0,58,0.00,,,0.00,Wunderground v.1.15,2013-07-09 20:50:00,
2013-07-09 17:00:00,74.0,60.6,30.06,NE,52,1.0,1.0,63,0.00,,,0.00,Wunderground v.1.15,2013-07-09 21:00:00,
2013-07-09 17:10:00,73.8,59.5,30.06,NE,51,0.0,4.0,61,0.00,,,0.00,Wunderground v.1.15,2013-07-09 21:10:00,
2013-07-09 17:20:00,73.8,61.3,30.05,NE,55,0.0,0.0,65,0.00,,,0.00,Wunderground v.1.15,2013-07-09 21:20:00,
2013-07-09 17:30:00,74.6,60.7,30.04,NE,55,0.0,1.0,62,0.00,,,0.00,Wunderground v.1.15,2013-07-09 21:30:00,
2013-07-09 17:40:00,74.9,59.6,30.04,East,100,1.0,1.0,59,0.00,,,0.00,Wunderground v.1.15,2013-07-09 21:40:00,
2013-07-09 17:50:00,75.5,60.2,30.04,ENE,63,0.0,0.0,59,0.00,,,0.00,Wunderground v.1.15,2013-07-09 21:50:00,
2013-07-09 18:00:00,76.0,61.1,30.04,ENE,71,0.0,0.0,60,0.00,,,0.00,Wunderground v.1.15,2013-07-09 22:00:00,
2013-07-09 18:10:00,76.3,60.9,30.04,ENE,71,0.0,0.0,59,0.00,,,0.00,Wunderground v.1.15,2013-07-09 22:10:00,
2013-07-09 18:20:00,75.7,60.8,30.04,ENE,71,0.0,0.0,60,0.00,,,0.00,Wunderground v.1.15,2013-07-09 22:20:00,
2013-07-09 18:30:00,74.9,60.5,30.04,ENE,71,0.0,0.0,61,0.00,,,0.00,Wunderground v.1.15,2013-07-09 22:30:00,
2013-07-09 18:40:00,74.7,63.0,30.04,ENE,71,0.0,0.0,67,0.00,,,0.00,Wunderground v.1.15,2013-07-09 22:40:00,
2013-07-09 18:50:00,74.1,63.3,30.04,ENE,71,0.0,0.0,69,0.00,,,0.00,Wunderground v.1.15,2013-07-09 22:50:00,
2013-07-09 19:00:00,73.2,63.6,30.04,ENE,71,0.0,0.0,72,0.00,,,0.00,Wunderground v.1.15,2013-07-09 23:00:00,
2013-07-09 19:10:00,72.5,61.7,30.04,ENE,71,0.0,0.0,69,0.00,,,0.00,Wunderground v.1.15,2013-07-09 23:10:00,
2013-07-09 19:20:00,71.9,62.0,30.04,ENE,71,0.0,0.0,71,0.00,,,0.00,Wunderground v.1.15,2013-07-09 23:20:00,
2013-07-09 19:30:00,71.4,61.9,30.04,ENE,71,0.0,0.0,72,0.00,,,0.00,Wunderground v.1.15,2013-07-09 23:30:00,
2013-07-09 19:40:00,71.1,61.6,30.04,ENE,71,0.0,0.0,72,0.00,,,0.00,Wunderground v.1.15,2013-07-09 23:40:00,
2013-07-09 19:50:00,70.7,61.6,30.03,ENE,71,0.0,0.0,73,0.00,,,0.00,Wunderground v.1.15,2013-07-09 23:50:00,
2013-07-09 20:00:00,70.3,62.4,30.03,ENE,71,0.0,0.0,76,0.00,,,0.00,Wunderground v.1.15,2013-07-10 00:00:00,
2013-07-09 20:10:00,69.8,61.9,30.03,ENE,71,0.0,0.0,76,0.00,,,0.00,Wunderground v.1.15,2013-07-10 00:10:00,
2013-07-09 20:20:00,69.2,61.7,30.03,ENE,71,0.0,0.0,77,0.00,,,0.00,Wunderground v.1.15,2013-07-10 00:20:00,
2013-07-09 20:30:00,68.9,61.4,30.03,ENE,71,0.0,0.0,77,0.00,,,0.00,Wunderground v.1.15,2013-07-10 00:30:00,
2013-07-09 20:40:00,68.6,61.5,30.02,ENE,71,0.0,0.0,78,0.00,,,0.00,Wunderground v.1.15,2013-07-10 00:40:00,
2013-07-09 20:50:00,68.1,61.3,30.02,ENE,71,0.0,0.0,79,0.00,,,0.00,Wunderground v.1.15,2013-07-10 00:50:00,
2013-07-09 21:00:00,67.7,61.3,30.03,ENE,71,0.0,0.0,80,0.00,,,0.00,Wunderground v.1.15,2013-07-10 01:00:00,
2013-07-09 21:10:00,67.3,60.9,30.03,ENE,71,0.0,0.0,80,0.00,,,0.00,Wunderground v.1.15,2013-07-10 01:10:00,
2013-07-09 21:20:00,66.9,60.9,30.03,ENE,71,0.0,0.0,81,0.00,,,0.00,Wunderground v.1.15,2013-07-10 01:20:00,
2013-07-09 21:30:00,66.6,60.6,30.03,ENE,71,0.0,0.0,81,0.00,,,0.00,Wunderground v.1.15,2013-07-10 01:30:00,
2013-07-09 21:40:00,66.4,60.4,30.03,ENE,71,0.0,0.0,81,0.00,,,0.00,Wunderground v.1.15,2013-07-10 01:40:00,
2013-07-09 21:50:00,66.0,59.7,30.03,ENE,71,0.0,0.0,80,0.00,,,0.00,Wunderground v.1.15,2013-07-10 01:50:00,
2013-07-09 22:00:00,65.3,59.0,30.03,ENE,71,0.0,0.0,80,0.00,,,0.00,Wunderground v.1.15,2013-07-10 02:00:00,
2013-07-09 22:10:00,64.7,58.4,30.03,ENE,71,0.0,0.0,80,0.00,,,0.00,Wunderground v.1.15,2013-07-10 02:10:00,
2013-07-09 22:20:00,64.1,57.8,30.03,ENE,71,0.0,0.0,80,0.00,,,0.00,Wunderground v.1.15,2013-07-10 02:20:00,
2013-07-09 22:30:00,63.9,57.6,30.04,ENE,71,0.0,0.0,80,0.00,,,0.00,Wunderground v.1.15,2013-07-10 02:30:00,
2013-07-09 22:40:00,63.8,57.5,30.04,ENE,71,0.0,0.0,80,0.00,,,0.00,Wunderground v.1.15,2013-07-10 02:40:00,
2013-07-09 22:50:00,63.6,57.3,30.04,ENE,71,0.0,0.0,80,0.00,,,0.00,Wunderground v.1.15,2013-07-10 02:50:00,
2013-07-09 23:00:00,63.3,57.7,30.04,ENE,71,0.0,0.0,82,0.00,,,0.00,Wunderground v.1.15,2013-07-10 03:00:00,
2013-07-09 23:10:00,63.0,57.8,30.04,ENE,71,0.0,0.0,83,0.00,,,0.00,Wunderground v.1.15,2013-07-10 03:10:00,
2013-07-09 23:20:00,62.4,57.5,30.04,ENE,71,0.0,0.0,84,0.00,,,0.00,Wunderground v.1.15,2013-07-10 03:20:00,
2013-07-09 23:30:00,62.0,57.4,30.03,ENE,71,0.0,0.0,85,0.00,,,0.00,Wunderground v.1.15,2013-07-10 03:30:00,
2013-07-09 23:40:00,62.0,57.4,30.03,ENE,71,0.0,0.0,85,0.00,,,0.00,Wunderground v.1.15,2013-07-10 03:40:00,
2013-07-09 23:50:00,61.8,57.6,30.02,ENE,71,0.0,0.0,86,0.00,,,0.00,Wunderground v.1.15,2013-07-10 03:50:00,